QPF
0.02 0.04 0.09 0.09 0.08 0.10 0.09 0.09 0.08 0.06 0.04 0.04 0.03 0.03 0.02 0.02 0.02 0.04 0.06 0.07 0.07 0.07 0.09 0.07 0.07 0.08 0.08 0.08 0.06 0.06 0.07 0.09 0.09 0.07 0.06 0.05 0.06 0.08 0.06 0.07 0.07 0.05 0.09
0.03 0.05 0.10 0.09 0.07 0.07 0.07 0.07 0.05 0.05 0.05 0.03 0.02 0.03 0.03 0.02 0.03 0.05 0.06 0.06 0.04 0.05 0.06 0.07 0.08 0.07 0.06 0.05 0.04 0.05 0.06 0.05 0.06 0.08 0.09 0.09 0.08 0.08 0.07 0.06 0.06 0.07 0.09
0.02 0.03 0.06 0.07 0.06 0.06 0.05 0.05 0.04 0.04 0.03 0.03 0.02 0.03 0.03 0.03 0.05 0.06 0.07 0.06 0.03 0.04 0.05 0.06 0.05 0.05 0.05 0.04 0.03 0.05 0.06 0.05 0.03 0.03 0.03 0.04 0.05 0.07 0.09 0.09 0.11 0.09 0.11
0.02 0.02 0.03 0.06 0.05 0.04 0.03 0.03 0.03 0.04 0.03 0.03 0.04 0.04 0.03 0.04 0.05 0.07 0.10 0.07 0.04 0.05 0.07 0.06 0.04 0.04 0.03 0.03 0.04 0.04 0.05 0.05 0.03 0.01 0.00 0.01 0.02 0.07 0.14 0.16 0.16 0.13 0.10
0.01 0.02 0.03 0.05 0.06 0.05 0.04 0.05 0.02 0.02 0.03 0.03 0.04 0.03 0.03 0.03 0.04 0.07 0.13 0.11 0.09 0.07 0.06 0.05 0.04 0.04 0.04 0.04 0.04 0.03 0.05 0.04 0.03 0.01 0.00 0.00 0.02 0.06 0.08 0.08 0.09 0.09 0.07
0.01 0.01 0.02 0.04 0.04 0.04 0.03 0.03 0.01 0.02 0.02 0.03 0.03 0.04 0.04 0.04 0.03 0.05 0.13 0.16 0.13 0.08 0.06 0.05 0.05 0.04 0.04 0.04 0.03 0.03 0.04 0.03 0.01 0.00 0.00 0.00 0.02 0.06 0.08 0.11 0.12 0.09 0.07
0.00 0.01 0.02 0.04 0.04 0.04 0.04 0.04 0.03 0.02 0.02 0.04 0.05 0.05 0.03 0.03 0.04 0.06 0.08 0.08 0.08 0.06 0.05 0.05 0.05 0.05 0.04 0.04 0.04 0.03 0.03 0.02 0.01 0.00 0.00 0.01 0.04 0.07 0.07 0.09 0.11 0.11 0.07
0.00 0.01 0.02 0.04 0.04 0.04 0.05 0.04 0.04 0.02 0.02 0.03 0.03 0.03 0.03 0.05 0.06 0.06 0.06 0.05 0.05 0.06 0.07 0.06 0.05 0.05 0.06 0.06 0.06 0.04 0.04 0.02 0.03 0.03 0.02 0.05 0.08 0.08 0.07 0.08 0.10 0.11 0.09
0.00 0.00 0.01 0.02 0.03 0.04 0.05 0.05 0.06 0.04 0.03 0.03 0.04 0.03 0.04 0.06 0.06 0.05 0.05 0.05 0.06 0.07 0.06 0.05 0.05 0.05 0.06 0.07 0.06 0.05 0.04 0.02 0.01 0.03 0.05 0.08 0.12 0.09 0.07 0.06 0.07 0.08 0.08
0.00 0.01 0.01 0.01 0.01 0.02 0.04 0.06 0.06 0.03 0.03 0.04 0.06 0.08 0.08 0.08 0.08 0.08 0.07 0.09 0.09 0.08 0.06 0.05 0.06 0.05 0.06 0.06 0.05 0.05 0.03 0.01 0.00 0.01 0.04 0.11 0.14 0.10 0.07 0.06 0.05 0.05 0.06
0.01 0.01 0.01 0.00 0.01 0.01 0.01 0.03 0.05 0.04 0.03 0.03 0.04 0.06 0.05 0.05 0.06 0.06 0.06 0.06 0.06 0.06 0.05 0.04 0.05 0.05 0.03 0.03 0.03 0.02 0.01 0.00 0.00 0.01 0.03 0.09 0.09 0.09 0.08 0.06 0.06 0.04 0.05
0.01 0.01 0.01 0.01 0.01 0.01 0.01 0.01 0.01 0.01 0.01 0.01 0.01 0.01 0.01 0.01 0.02 0.03 0.05 0.06 0.05 0.05 0.05 0.05 0.03 0.02 0.01 0.01 0.01 0.01 0.01 0.01 0.00 0.01 0.03 0.07 0.08 0.07 0.07 0.05 0.05 0.04 0.04
0.01 0.01 0.01 0.02 0.02 0.01 0.01 0.01 0.01 0.00 0.00 0.00 0.00 0.00 0.00 0.01 0.01 0.02 0.03 0.03 0.02 0.02 0.02 0.02 0.02 0.01 0.00 0.00 0.01 0.01 0.01 0.01 0.00 0.00 0.03 0.06 0.07 0.07 0.06 0.05 0.05 0.05 0.05
0.01 0.02 0.01 0.01 0.02 0.02 0.01 0.01 0.01 0.00 0.00 0.00 0.01 0.01 0.00 0.00 0.01 0.02 0.02 0.02 0.01 0.01 0.01 0.02 0.01 0.01 0.00 0.00 0.01 0.01 0.01 0.00 0.00 0.00 0.02 0.04 0.05 0.05 0.05 0.05 0.06 0.05 0.05
0.02 0.02 0.01 0.01 0.02 0.02 0.01 0.01 0.02 0.01 0.02 0.02 0.02 0.01 0.00 0.01 0.01 0.03 0.03 0.01 0.01 0.01 0.01 0.01 0.01 0.01 0.01 0.01 0.02 0.02 0.01 0.00 0.00 0.00 0.01 0.03 0.05 0.06 0.06 0.08 0.07 0.05 0.04
0.02 0.02 0.02 0.02 0.03 0.02 0.02 0.02 0.02 0.02 0.03 0.03 0.01 0.01 0.01 0.01 0.01 0.01 0.01 0.00 0.00 0.00 0.00 0.00 0.01 0.01 0.01 0.02 0.04 0.04 0.02 0.01 0.01 0.01 0.00 0.01 0.03 0.05 0.07 0.09 0.09 0.06 0.04
0.03 0.03 0.03 0.03 0.03 0.03 0.02 0.02 0.02 0.02 0.02 0.02 0.01 0.01 0.01 0.01 0.00 0.00 0.00 0.00 0.01 0.00 0.00 0.01 0.01 0.02 0.02 0.02 0.03 0.04 0.04 0.03 0.02 0.01 0.01 0.01 0.01 0.03 0.05 0.08 0.09 0.08 0.09
0.05 0.05 0.03 0.02 0.02 0.04 0.04 0.03 0.02 0.02 0.02 0.02 0.01 0.01 0.01 0.01 0.01 0.01 0.01 0.01 0.01 0.00 0.01 0.01 0.02 0.02 0.01 0.01 0.02 0.03 0.04 0.03 0.02 0.01 0.01 0.01 0.02 0.02 0.05 0.08 0.08 0.08 0.09
0.05 0.04 0.03 0.02 0.02 0.04 0.04 0.03 0.02 0.02 0.03 0.03 0.02 0.01 0.01 0.01 0.01 0.02 0.02 0.01 0.01 0.00 0.01 0.01 0.02 0.02 0.01 0.01 0.01 0.02 0.04 0.05 0.04 0.03 0.02 0.02 0.02 0.02 0.04 0.04 0.05 0.05 0.05
0.03 0.03 0.02 0.02 0.03 0.03 0.02 0.02 0.02 0.01 0.02 0.02 0.02 0.01 0.01 0.01 0.01 0.01 0.01 0.01 0.01 0.00 0.01 0.01 0.02 0.03 0.02 0.02 0.01 0.02 0.04 0.04 0.03 0.03 0.04 0.03 0.03 0.03 0.02 0.01 0.01 0.02 0.03
0.03 0.02 0.01 0.01 0.01 0.02 0.02 0.02 0.02 0.02 0.02 0.02 0.03 0.01 0.01 0.00 0.00 0.01 0.01 0.01 0.00 0.00 0.00 0.01 0.02 0.02 0.02 0.02 0.02 0.03 0.03 0.02 0.02 0.03 0.04 0.04 0.04 0.03 0.02 0.02 0.01 0.01 0.01
0.02 0.02 0.01 0.01 0.00 0.01 0.01 0.02 0.02 0.02 0.02 0.03 0.03 0.02 0.01 0.01 0.01 0.01 0.01 0.01 0.00 0.00 0.00 0.00 0.01 0.02 0.02 0.02 0.02 0.02 0.03 0.02 0.01 0.02 0.03 0.03 0.03 0.02 0.02 0.02 0.01 0.01 0.01
0.02 0.02 0.02 0.01 0.01 0.01 0.01 0.02 0.02 0.03 0.03 0.03 0.04 0.04 0.03 0.02 0.02 0.01 0.01 0.01 0.00 0.00 0.00 0.00 0.01 0.01 0.01 0.02 0.02 0.02 0.02 0.02 0.01 0.01 0.01 0.02 0.02 0.02 0.03 0.01 0.01 0.00 0.00
0.03 0.03 0.02 0.01 0.01 0.01 0.01 0.01 0.01 0.01 0.01 0.02 0.04 0.04 0.03 0.03 0.02 0.01 0.01 0.01 0.01 0.01 0.01 0.01 0.01 0.02 0.01 0.01 0.02 0.02 0.01 0.01 0.01 0.01 0.01 0.01 0.01 0.02 0.03 0.02 0.02 0.02 0.01
0.03 0.03 0.02 0.01 0.01 0.03 0.03 0.01 0.01 0.01 0.01 0.01 0.01 0.02 0.03 0.04 0.03 0.02 0.01 0.01 0.01 0.01 0.01 0.01 0.01 0.03 0.02 0.01 0.01 0.02 0.01 0.00 0.00 0.01 0.02 0.01 0.01 0.01 0.01 0.02 0.02 0.02 0.02
0.02 0.02 0.03 0.02 0.01 0.02 0.02 0.01 0.01 0.01 0.01 0.01 0.01 0.00 0.01 0.02 0.02 0.02 0.01 0.01 0.01 0.01 0.01 0.01 0.01 0.01 0.02 0.01 0.01 0.01 0.00 0.01 0.01 0.01 0.01 0.02 0.02 0.02 0.02 0.03 0.03 0.02 0.02
MSLP
1013.41 1012.87 1012.41 1012.10 1011.95 1011.94 1012.05 1012.19 1012.30 1012.35 1012.30 1012.17 1012.00 1011.84 1011.73 1011.70 1011.75 1011.86 1012.00 1012.12 1012.20 1012.22 1012.19 1012.13 1012.06 1012.00 1011.98 1011.99 1012.02 1012.07 1012.11 1012.13 1012.14 1012.14 1012.15 1012.17 1012.21 1012.27 1012.32 1012.37 1012.39 1012.38 1012.33
1013.55 1013.03 1012.61 1012.32 1012.19 1012.20 1012.29 1012.41 1012.49 1012.51 1012.43 1012.29 1012.12 1011.98 1011.90 1011.90 1011.98 1012.11 1012.27 1012.40 1012.49 1012.51 1012.48 1012.41 1012.33 1012.26 1012.22 1012.22 1012.23 1012.26 1012.29 1012.32 1012.34 1012.36 1012.39 1012.42 1012.47 1012.51 1012.55 1012.56 1012.56 1012.52 1012.45
1013.61 1013.15 1012.77 1012.54 1012.44 1012.47 1012.56 1012.65 1012.71 1012.69 1012.59 1012.44 1012.28 1012.15 1012.08 1012.10 1012.19 1012.34 1012.49 1012.62 1012.70 1012.71 1012.68 1012.61 1012.53 1012.47 1012.43 1012.42 1012.44 1012.47 1012.52 1012.56 1012.60 1012.64 1012.69 1012.74 1012.78 1012.82 1012.83 1012.83 1012.79 1012.74 1012.66
1013.61 1013.22 1012.91 1012.74 1012.69 1012.74 1012.83 1012.91 1012.94 1012.89 1012.77 1012.61 1012.44 1012.32 1012.26 1012.29 1012.38 1012.52 1012.66 1012.77 1012.83 1012.84 1012.81 1012.76 1012.70 1012.66 1012.64 1012.66 1012.70 1012.75 1012.81 1012.87 1012.94 1013.00 1013.07 1013.12 1013.17 1013.19 1013.19 1013.16 1013.11 1013.04 1012.97
1013.58 1013.27 1013.04 1012.94 1012.94 1013.02 1013.11 1013.17 1013.17 1013.09 1012.94 1012.76 1012.60 1012.48 1012.43 1012.46 1012.55 1012.67 1012.79 1012.88 1012.93 1012.95 1012.93 1012.90 1012.87 1012.88 1012.90 1012.95 1013.02 1013.10 1013.18 1013.27 1013.35 1013.43 1013.50 1013.56 1013.60 1013.62 1013.61 1013.56 1013.50 1013.43 1013.35
1013.55 1013.32 1013.18 1013.14 1013.19 1013.28 1013.36 1013.40 1013.36 1013.25 1013.08 1012.90 1012.73 1012.63 1012.59 1012.62 1012.71 1012.82 1012.92 1013.00 1013.04 1013.06 1013.07 1013.07 1013.10 1013.15 1013.23 1013.33 1013.43 1013.53 1013.63 1013.72 1013.80 1013.88 1013.95 1014.01 1014.05 1014.06 1014.03 1013.98 1013.91 1013.84 1013.77
1013.56 1013.40 1013.33 1013.35 1013.42 1013.51 1013.58 1013.58 1013.51 1013.37 1013.19 1013.01 1012.87 1012.78 1012.77 1012.82 1012.90 1013.00 1013.09 1013.16 1013.20 1013.23 1013.27 1013.32 1013.40 1013.51 1013.63 1013.77 1013.90 1014.01 1014.11 1014.19 1014.26 1014.32 1014.38 1014.43 1014.45 1014.46 1014.43 1014.38 1014.31 1014.23 1014.17
1013.62 1013.52 1013.51 1013.56 1013.65 1013.73 1013.77 1013.73 1013.63 1013.47 1013.29 1013.13 1013.02 1012.97 1012.99 1013.07 1013.16 1013.26 1013.34 1013.40 1013.44 1013.49 1013.55 1013.64 1013.76 1013.92 1014.09 1014.25 1014.39 1014.50 1014.57 1014.62 1014.66 1014.69 1014.73 1014.76 1014.78 1014.78 1014.75 1014.70 1014.64 1014.57 1014.52
1013.74 1013.69 1013.71 1013.79 1013.87 1013.93 1013.94 1013.87 1013.74 1013.58 1013.42 1013.29 1013.23 1013.24 1013.31 1013.41 1013.52 1013.62 1013.69 1013.74 1013.78 1013.83 1013.90 1014.02 1014.18 1014.37 1014.57 1014.74 1014.87 1014.95 1014.99 1015.00 1014.99 1014.98 1014.98 1014.99 1015.00 1015.00 1014.98 1014.95 1014.90 1014.84 1014.80
1013.91 1013.89 1013.94 1014.02 1014.10 1014.13 1014.10 1014.01 1013.87 1013.72 1013.59 1013.52 1013.52 1013.59 1013.71 1013.85 1013.98 1014.07 1014.14 1014.17 1014.19 1014.24 1014.33 1014.46 1014.64 1014.85 1015.05 1015.22 1015.33 1015.38 1015.37 1015.32 1015.26 1015.20 1015.17 1015.15 1015.15 1015.16 1015.15 1015.14 1015.10 1015.06 1015.03
1014.08 1014.10 1014.17 1014.25 1014.31 1014.32 1014.27 1014.17 1014.04 1013.92 1013.84 1013.83 1013.90 1014.03 1014.19 1014.36 1014.50 1014.60 1014.64 1014.66 1014.67 1014.71 1014.80 1014.94 1015.14 1015.35 1015.55 1015.71 1015.79 1015.80 1015.74 1015.63 1015.51 1015.40 1015.33 1015.29 1015.28 1015.30 1015.31 1015.31 1015.30 1015.27 1015.25
1014.23 1014.28 1014.37 1014.45 1014.50 1014.50 1014.44 1014.35 1014.25 1014.17 1014.15 1014.21 1014.33 1014.52 1014.72 1014.91 1015.06 1015.15 1015.18 1015.18 1015.18 1015.22 1015.31 1015.46 1015.66 1015.88 1016.08 1016.22 1016.28 1016.25 1016.15 1015.99 1015.81 1015.66 1015.54 1015.48 1015.46 1015.48 1015.51 1015.53 1015.53 1015.53 1015.52
1014.35 1014.42 1014.52 1014.60 1014.65 1014.66 1014.61 1014.54 1014.48 1014.46 1014.49 1014.61 1014.79 1015.01 1015.24 1015.44 1015.59 1015.67 1015.70 1015.70 1015.71 1015.75 1015.85 1016.02 1016.23 1016.47 1016.67 1016.80 1016.84 1016.79 1016.64 1016.44 1016.22 1016.03 1015.87 1015.78 1015.75 1015.76 1015.80 1015.83 1015.86 1015.87 1015.87
1014.42 1014.51 1014.61 1014.70 1014.75 1014.77 1014.76 1014.73 1014.71 1014.74 1014.83 1014.99 1015.20 1015.45 1015.69 1015.89 1016.04 1016.13 1016.17 1016.18 1016.21 1016.29 1016.42 1016.62 1016.86 1017.10 1017.32 1017.46 1017.49 1017.43 1017.26 1017.03 1016.78 1016.55 1016.36 1016.24 1016.18 1016.18 1016.21 1016.25 1016.28 1016.31 1016.31
1014.46 1014.54 1014.64 1014.74 1014.80 1014.85 1014.87 1014.89 1014.93 1015.00 1015.13 1015.32 1015.54 1015.79 1016.03 1016.23 1016.38 1016.49 1016.55 1016.61 1016.69 1016.81 1017.00 1017.24 1017.52 1017.80 1018.03 1018.19 1018.23 1018.17 1018.00 1017.77 1017.50 1017.24 1017.02 1016.86 1016.77 1016.74 1016.75 1016.78 1016.81 1016.83 1016.83
1014.48 1014.55 1014.63 1014.73 1014.81 1014.88 1014.95 1015.02 1015.10 1015.22 1015.37 1015.56 1015.78 1016.01 1016.23 1016.43 1016.59 1016.73 1016.85 1016.97 1017.12 1017.32 1017.57 1017.87 1018.19 1018.51 1018.77 1018.95 1019.02 1018.98 1018.84 1018.61 1018.34 1018.07 1017.82 1017.63 1017.50 1017.42 1017.39 1017.40 1017.41 1017.42 1017.41
1014.51 1014.55 1014.61 1014.69 1014.79 1014.89 1015.00 1015.12 1015.25 1015.40 1015.56 1015.74 1015.94 1016.13 1016.33 1016.52 1016.71 1016.88 1017.07 1017.27 1017.51 1017.79 1018.11 1018.47 1018.83 1019.18 1019.48 1019.69 1019.80 1019.80 1019.69 1019.50 1019.25 1018.98 1018.72 1018.50 1018.32 1018.19 1018.12 1018.07 1018.05 1018.03 1018.00
1014.57 1014.56 1014.59 1014.67 1014.77 1014.91 1015.06 1015.23 1015.40 1015.56 1015.72 1015.88 1016.04 1016.20 1016.37 1016.55 1016.75 1016.98 1017.23 1017.52 1017.84 1018.20 1018.59 1018.99 1019.39 1019.77 1020.09 1020.34 1020.49 1020.54 1020.49 1020.36 1020.15 1019.91 1019.66 1019.41 1019.20 1019.02 1018.88 1018.79 1018.72 1018.66 1018.59
1014.66 1014.60 1014.60 1014.66 1014.78 1014.95 1015.15 1015.36 1015.56 1015.74 1015.90 1016.03 1016.15 1016.27 1016.40 1016.58 1016.79 1017.06 1017.37 1017.74 1018.13 1018.55 1018.98 1019.42 1019.83 1020.22 1020.56 1020.83 1021.03 1021.15 1021.18 1021.13 1021.00 1020.81 1020.58 1020.33 1020.09 1019.87 1019.67 1019.52 1019.39 1019.28 1019.18
1014.75 1014.67 1014.64 1014.69 1014.83 1015.03 1015.27 1015.53 1015.76 1015.96 1016.11 1016.21 1016.29 1016.37 1016.48 1016.64 1016.86 1017.16 1017.52 1017.94 1018.38 1018.83 1019.29 1019.72 1020.13 1020.51 1020.85 1021.15 1021.41 1021.60 1021.72 1021.76 1021.73 1021.62 1021.44 1021.22 1020.97 1020.71 1020.47 1020.25 1020.07 1019.91 1019.77
1014.84 1014.73 1014.69 1014.74 1014.90 1015.13 1015.42 1015.72 1015.99 1016.21 1016.36 1016.45 1016.50 1016.55 1016.63 1016.77 1017.00 1017.31 1017.70 1018.14 1018.60 1019.06 1019.50 1019.91 1020.29 1020.65 1020.98 1021.30 1021.60 1021.87 1022.09 1022.24 1022.32 1022.31 1022.20 1022.03 1021.79 1021.52 1021.24 1020.98 1020.74 1020.54 1020.36
1014.88 1014.76 1014.72 1014.79 1014.97 1015.24 1015.57 1015.92 1016.23 1016.48 1016.64 1016.72 1016.76 1016.79 1016.85 1016.98 1017.20 1017.52 1017.91 1018.34 1018.79 1019.23 1019.63 1020.00 1020.34 1020.65 1020.97 1021.30 1021.64 1021.98 1022.30 1022.56 1022.76 1022.85 1022.84 1022.72 1022.51 1022.25 1021.96 1021.66 1021.39 1021.15 1020.94
1014.85 1014.75 1014.73 1014.81 1015.01 1015.31 1015.68 1016.07 1016.43 1016.71 1016.90 1017.00 1017.05 1017.07 1017.13 1017.25 1017.46 1017.76 1018.14 1018.55 1018.97 1019.37 1019.72 1020.03 1020.31 1020.58 1020.87 1021.20 1021.56 1021.96 1022.36 1022.73 1023.03 1023.23 1023.30 1023.26 1023.10 1022.86 1022.57 1022.26 1021.97 1021.70 1021.47
1014.74 1014.68 1014.68 1014.78 1014.99 1015.32 1015.73 1016.15 1016.55 1016.88 1017.11 1017.24 1017.30 1017.34 1017.41 1017.53 1017.74 1018.02 1018.38 1018.76 1019.14 1019.48 1019.77 1020.02 1020.24 1020.46 1020.72 1021.04 1021.42 1021.85 1022.31 1022.75 1023.13 1023.41 1023.57 1023.59 1023.49 1023.28 1023.01 1022.71 1022.42 1022.14 1021.90
1014.58 1014.56 1014.58 1014.69 1014.92 1015.26 1015.68 1016.13 1016.57 1016.94 1017.21 1017.39 1017.49 1017.56 1017.65 1017.79 1017.99 1018.27 1018.59 1018.94 1019.28 1019.57 1019.81 1020.01 1020.18 1020.36 1020.59 1020.88 1021.25 1021.69 1022.17 1022.65 1023.08 1023.41 1023.62 1023.70 1023.65 1023.49 1023.26 1022.98 1022.70 1022.43 1022.19
1014.39 1014.41 1014.45 1014.56 1014.79 1015.12 1015.55 1016.02 1016.48 1016.88 1017.20 1017.43 1017.59 1017.70 1017.82 1017.98 1018.19 1018.46 1018.77 1019.10 1019.40 1019.65 1019.86 1020.01 1020.14 1020.29 1020.48 1020.75 1021.09 1021.51 1021.98 1022.45 1022.89 1023.24 1023.48 1023.59 1023.58 1023.47 1023.28 1023.05 1022.79 1022.55 1022.32
Thickness
5760 5763 5764 5765 5765 5765 5766 5766 5764 5763 5763 5763 5763 5762 5762 5762 5761 5761 5760 5760 5760 5759 5760 5760 5760 5760 5760 5760 5760 5760 5760 5761 5761 5761 5762 5763 5763 5763 5764 5764 5764 5765 5765
5761 5762 5763 5764 5763 5763 5763 5762 5761 5761 5761 5761 5760 5760 5760 5759 5759 5758 5758 5757 5757 5757 5757 5757 5757 5757 5757 5757 5757 5757 5757 5758 5758 5758 5759 5759 5760 5761 5761 5761 5762 5762 5763
5761 5761 5761 5761 5761 5760 5760 5760 5759 5759 5759 5758 5758 5757 5757 5757 5756 5755 5755 5755 5754 5754 5754 5754 5754 5754 5754 5754 5754 5754 5754 5754 5754 5755 5755 5756 5756 5757 5758 5758 5759 5759 5759
5759 5759 5759 5759 5759 5758 5757 5757 5757 5756 5756 5755 5755 5754 5754 5753 5753 5753 5754 5754 5751 5751 5750 5750 5750 5750 5750 5750 5751 5751 5751 5751 5751 5751 5751 5752 5753 5754 5754 5755 5755 5755 5755
5756 5756 5756 5756 5755 5755 5754 5754 5753 5753 5753 5752 5752 5751 5751 5750 5750 5750 5751 5751 5748 5747 5747 5747 5747 5747 5746 5746 5746 5746 5746 5747 5747 5747 5747 5748 5749 5750 5750 5751 5751 5751 5751
5753 5753 5753 5752 5752 5752 5751 5751 5750 5749 5749 5749 5748 5747 5747 5747 5746 5746 5746 5745 5744 5744 5743 5743 5743 5743 5742 5742 5742 5742 5742 5742 5742 5743 5743 5744 5745 5746 5746 5747 5747 5747 5747
5750 5750 5749 5749 5749 5748 5748 5747 5746 5746 5745 5744 5744 5743 5743 5743 5742 5742 5741 5740 5740 5740 5739 5739 5739 5738 5738 5738 5738 5737 5737 5737 5738 5738 5739 5740 5741 5742 5742 5742 5743 5743 5743
5747 5746 5746 5745 5745 5744 5744 5743 5742 5742 5741 5740 5740 5739 5739 5738 5738 5737 5737 5736 5736 5736 5735 5735 5735 5734 5734 5733 5733 5733 5733 5733 5733 5734 5735 5736 5737 5738 5738 5738 5738 5738 5738
5743 5742 5742 5741 5741 5740 5739 5739 5738 5737 5737 5736 5735 5735 5734 5734 5733 5733 5732 5732 5732 5731 5731 5730 5730 5729 5729 5729 5728 5728 5728 5728 5729 5729 5730 5731 5732 5733 5733 5734 5734 5734 5733
5739 5738 5738 5737 5736 5736 5735 5734 5733 5733 5732 5731 5731 5730 5729 5729 5728 5728 5728 5727 5727 5726 5726 5725 5725 5724 5724 5724 5724 5723 5723 5723 5724 5725 5725 5726 5728 5728 5728 5728 5728 5729 5729
5734 5734 5733 5733 5732 5731 5730 5730 5729 5728 5727 5726 5725 5724 5724 5723 5723 5723 5723 5723 5722 5722 5721 5720 5720 5719 5719 5719 5719 5718 5719 5719 5719 5720 5721 5722 5723 5724 5724 5724 5724 5723 5724
5728 5729 5729 5729 5728 5727 5726 5725 5724 5723 5722 5721 5721 5720 5719 5719 5718 5718 5718 5717 5717 5716 5716 5715 5715 5714 5714 5713 5713 5713 5713 5714 5715 5716 5716 5718 5719 5719 5719 5719 5719 5719 5719
5726 5726 5726 5725 5724 5723 5722 5720 5719 5718 5718 5717 5716 5715 5715 5714 5714 5713 5712 5712 5712 5711 5710 5710 5709 5709 5708 5708 5708 5708 5709 5709 5710 5711 5712 5713 5714 5715 5715 5715 5715 5715 5715
5723 5723 5723 5722 5721 5719 5718 5716 5715 5714 5714 5713 5711 5711 5710 5709 5709 5708 5707 5706 5706 5706 5705 5705 5704 5703 5703 5703 5703 5703 5704 5704 5704 5705 5707 5708 5709 5710 5710 5710 5710 5710 5710
5720 5719 5719 5719 5718 5716 5714 5713 5711 5710 5709 5708 5707 5707 5706 5705 5704 5703 5702 5702 5701 5701 5701 5700 5699 5699 5699 5698 5698 5698 5699 5699 5699 5700 5701 5702 5703 5704 5705 5705 5705 5705 5705
5717 5717 5717 5716 5714 5713 5711 5709 5708 5707 5706 5705 5704 5703 5702 5701 5700 5699 5698 5697 5697 5697 5696 5696 5695 5694 5693 5693 5693 5693 5693 5693 5693 5694 5695 5696 5697 5698 5699 5699 5699 5699 5699
5716 5715 5714 5713 5712 5710 5708 5706 5705 5704 5703 5701 5700 5699 5699 5698 5697 5696 5694 5693 5693 5692 5692 5691 5690 5690 5689 5688 5687 5687 5687 5687 5688 5688 5688 5689 5690 5691 5692 5693 5693 5694 5694
5714 5712 5712 5712 5709 5706 5704 5703 5701 5700 5699 5698 5697 5696 5695 5694 5693 5692 5691 5690 5689 5689 5688 5687 5686 5684 5683 5682 5681 5681 5681 5681 5682 5682 5682 5682 5683 5684 5685 5686 5687 5688 5688
5713 5711 5709 5708 5705 5703 5701 5699 5698 5696 5695 5694 5694 5693 5692 5691 5690 5689 5688 5687 5686 5685 5684 5684 5681 5680 5678 5677 5676 5676 5675 5675 5675 5676 5676 5676 5676 5677 5678 5679 5680 5681 5682
5711 5709 5707 5705 5702 5700 5697 5695 5693 5692 5692 5691 5690 5690 5689 5688 5687 5686 5684 5684 5683 5682 5680 5679 5677 5676 5674 5673 5673 5671 5669 5669 5670 5669 5669 5670 5670 5671 5671 5672 5673 5674 5675
5708 5706 5704 5701 5699 5697 5694 5691 5688 5687 5687 5687 5687 5687 5686 5685 5684 5683 5681 5680 5679 5678 5677 5676 5674 5671 5669 5669 5667 5664 5664 5664 5663 5663 5663 5663 5663 5664 5664 5665 5666 5667 5668
5705 5704 5701 5699 5697 5695 5693 5690 5688 5686 5685 5685 5684 5683 5683 5682 5681 5680 5679 5677 5676 5674 5673 5672 5671 5668 5666 5665 5663 5659 5655 5655 5656 5657 5657 5657 5656 5657 5657 5658 5659 5660 5661
5703 5702 5701 5697 5695 5693 5691 5688 5686 5683 5681 5680 5679 5679 5679 5679 5678 5677 5676 5675 5674 5672 5670 5669 5668 5666 5662 5661 5660 5657 5651 5647 5647 5649 5650 5650 5651 5651 5651 5652 5653 5653 5655
5702 5701 5699 5696 5694 5691 5689 5687 5683 5679 5677 5677 5677 5676 5676 5676 5675 5675 5674 5672 5671 5670 5668 5667 5665 5664 5661 5658 5656 5654 5652 5648 5644 5642 5644 5645 5645 5646 5646 5647 5648 5648 5649
5701 5699 5697 5695 5692 5690 5688 5685 5682 5679 5677 5676 5675 5674 5673 5673 5673 5672 5671 5670 5669 5667 5666 5664 5662 5661 5659 5657 5654 5651 5648 5644 5642 5639 5638 5639 5640 5641 5642 5642 5643 5643 5644
5699 5697 5695 5692 5690 5688 5686 5684 5681 5678 5675 5673 5672 5671 5670 5670 5670 5670 5669 5668 5667 5665 5664 5662 5661 5659 5657 5655 5652 5650 5647 5644 5640 5638 5635 5634 5634 5636 5637 5638 5639 5639 5640